[[{"header":{"parameterUnit":"m.s-1","parameterCategory":1,"la1":30.2991,"la2":30.254,"lo1":-89.0895,"lo2":-89.0444,"dy":0.0017,"dx":0.0017,"nx":28,"ny":28,"refTime":"2025-01-15T09:00:00:Z","depth":0,"parameterNumber":2,"parameterNumberName":"U-component_of_WINDS"},"data":[0,0,0,0,0,0,0,0,0,0,0,0,0,0,0,0,0,0,0,0,0,0,0,0,0,0,0,0,0,0,0,0,0,0,0,0,0,0,0,0,0,0,0,0,0,0,0,0,0,0,0,0,0,0,0,0,0,0,-2.8246,-2.8246,0,-2.83,-2.83,-2.8301,-2.8211,-2.8208,-2.8205,-2.8202,-2.8261,-2.8265,-2.8269,0,0,0,0,0,0,0,0,0,0,0,0,0,-2.8067,-2.8071,-2.8246,-2.8246,-2.8247,-2.83,-2.83,-2.8301,-2.8212,-2.8208,-2.8205,-2.8201,-2.8259,-2.8264,-2.827,0,0,0,0,0,0,0,0,0,0,0,0,0,-2.8135,-2.8072,-2.8246,-2.8209,-2.8206,-2.8299,-2.83,-2.8301,-2.8213,-2.8208,-2.8204,-2.8199,-2.8257,-2.8264,-2.827,-2.8403,0,0,-2.8291,-2.8293,0,0,0,0,0,0,0,0,-2.8132,-2.8142,-2.8214,-2.8212,-2.8209,-2.8244,-2.8259,-2.8336,-2.8214,-2.821,-2.8202,-2.8197,-2.8259,-2.8265,-2.8286,-2.8406,-2.8408,-2.8291,-2.8295,-2.8298,-2.83,0,0,0,0,0,0,0,-2.8127,-2.8139,-2.8267,-2.8215,-2.8212,-2.819,-2.8195,-2.8273,-2.826,-2.821,-2.8204,-2.8211,-2.8257,-2.8279,-2.8286,-2.8409,-2.8291,-2.8297,-2.8301,-2.8304,-2.864,-2.8645,0,0,0,0,0,0,-2.8126,-2.8136,-2.8265,-2.8269,-2.8158,-2.8197,-2.8202,-2.8237,-2.8259,-2.8258,-2.8215,-2.8207,-2.827,-2.8279,-2.8288,-2.8445,-2.8298,-2.8304,-2.8308,-2.8635,-2.8641,-2.8647,0,0,0,0,0,0,-2.8123,-2.8139,-2.8263,-2.8201,-2.8215,-2.8205,-2.8245,-2.8241,-2.8263,-2.8262,-2.826,-2.8241,-2.8267,-2.8279,-2.8375,-2.8446,-2.8307,-2.8313,-2.863,-2.8637,-2.8644,-2.876,0,0,0,0,0,0,-2.8118,-2.8138,-2.8188,-2.8202,-2.8218,-2.8349,-2.825,-2.8245,-2.8275,-2.8264,-2.8286,-2.8285,-2.8264,-2.8365,-2.8381,-2.8452,-2.8318,-2.8623,-2.8633,-2.8642,-2.875,-2.8771,-2.8788,0,0,0,0,0,-2.8112,-2.822,-2.8191,-2.8207,-2.8281,-2.8354,-2.8363,-2.8336,-2.8281,-2.8331,-2.833,-2.8284,-2.8435,-2.8376,-2.8393,-2.8467,-2.8619,-2.863,-2.8641,-2.8741,-2.8767,-2.8788,0,0,0,0,0,0,-2.8216,-2.8221,-2.819,-2.8305,-2.8329,-2.8338,-2.8401,-2.8364,-2.8406,-2.8395,-2.836,-2.8366,-2.8469,-2.8477,-2.8412,-2.8596,-2.8517,-2.8533,-2.8588,-2.8612,-2.8631,-2.8628,-2.8324,0,0,0,0,0,-2.8252,-2.831,-2.8311,-2.8412,-2.8426,-2.8412,-2.8443,-2.842,-2.8444,-2.8455,-2.8461,-2.8487,-2.854,-2.8576,-2.8625,-2.875,-2.8753,-2.8809,-2.8828,-2.8844,-2.8858,-2.8925,-2.895,-2.8684,-2.8684,-2.8683,0,0,-2.8327,-2.8337,-2.8376,-2.8433,-2.845,-2.8511,-2.8421,-2.849,-2.8536,-2.8465,-2.8556,-2.8562,-2.8588,-2.87,-2.8749,-2.871,-2.8932,-2.8858,-2.8871,-2.8877,-2.8939,-2.8964,-2.8987,-2.8691,-2.869,-2.8689,0,0,-2.8497,-2.8509,-2.8595,-2.8613,-2.8638,-2.8627,-2.8648,-2.8663,-2.8663,-2.8754,-2.8702,-2.8755,-2.8847,-2.8869,-2.8892,-2.9067,-2.9026,-2.9083,-2.9185,-2.925,-2.9271,-2.929,-2.9353,-2.9376,-2.9097,-2.9097,-2.9098,0,-2.8588,-2.8678,-2.8645,-2.8717,-2.8744,-2.8681,-2.8768,-2.8787,-2.8827,-2.8848,-2.8802,-2.8916,-2.8929,-2.9045,-2.9087,-2.9108,-2.9131,-2.9082,-2.9271,-2.9289,-2.9306,-2.9366,-2.939,-2.9104,-2.9104,-2.9103,-2.9102,0,-2.8789,-2.8852,-2.8918,-2.8958,-2.8992,-2.9071,-2.905,-2.9089,-2.9062,-2.9057,-2.9149,-2.9163,-2.9213,-2.9238,-2.9214,-2.935,-2.9325,-2.9276,-2.9196,-2.9338,-2.9394,-2.9417,-2.9114,-2.9112,-2.911,-2.9108,0,0,-2.9028,-2.9046,-2.9072,-2.9088,-2.911,-2.9159,-2.9235,-2.9283,-2.9317,-2.9346,-2.941,-2.9488,-2.9442,-2.9468,-2.9445,-2.9502,-2.9641,-2.9445,-2.9445,-2.9483,-2.9793,-2.9831,-2.9859,-2.9612,-2.9617,-2.962,-2.9791,0,-2.9198,-2.9329,-2.93,-2.9429,-2.9487,-2.9427,-2.9493,-2.9514,-2.951,-2.9559,-2.9554,-2.9611,-2.9545,-2.956,-2.9614,-2.9613,-2.9703,-2.96,-2.9673,-2.9676,-2.967,-2.9888,-2.9929,-3.009,-2.9812,-2.9816,-2.9819,0,-2.9414,-2.945,-2.9585,-2.9596,-2.962,-2.968,-2.9721,-2.9768,-2.979,-2.9783,-2.9811,-2.9777,-2.9852,-2.977,-2.9874,-2.9804,-2.9832,-2.9836,-2.9841,-2.9849,-2.9758,-2.9903,-3.014,-3.0165,-2.9853,-2.985,-2.9848,0,-2.9577,-2.9659,-2.975,-2.9766,-2.9782,-2.9825,-2.9834,-2.9851,-2.9882,-2.9918,-2.9937,-2.9982,-3.0007,-3.0042,-3.002,-2.9962,-3.0129,-3.0044,-3.0126,-3.0127,-3.0166,-3.0164,-3.0413,-3.0181,-3.018,-3.018,-3.0179,0,-2.977,-2.9856,-2.9823,-2.988,-2.9973,-2.9938,-3.0032,-3.0033,-3.0049,-3.0105,-3.0055,-3.0109,-3.0075,-3.0126,-3.011,-3.0199,-3.021,-3.0207,-3.0202,-3.0213,-3.0214,-3.0233,-3.0222,-3.0186,-3.0185,-3.0184,-3.0182,0,-2.9969,-2.9951,-3.0046,-3.0052,-3.0056,-3.0125,-3.013,-3.0182,-3.0173,-3.0245,-3.0259,-3.0246,-3.0303,-3.0284,-3.0346,-3.0334,-3.0448,-3.0428,-3.0441,-3.0437,-3.052,-3.0513,-3.0791,-3.0826,-3.057,-3.0572,-3.0574,0,-3.0095,-3.0159,-3.0171,-3.0205,-3.0217,-3.0271,-3.0301,-3.0269,-3.0303,-3.0332,-3.0381,-3.0433,-3.0474,-3.0568,-3.0564,-3.0611,-3.0592,-3.0686,-3.0599,-3.0608,-3.0596,-3.0593,-3.0599,-3.0705,-3.0708,-3.071,-3.0712,0,-3.0321,-3.0308,-3.0353,-3.0395,-3.0432,-3.0464,-3.0491,-3.0521,-3.0491,-3.0531,-3.0588,-3.0619,-3.0681,-3.0734,-3.0776,-3.0785,-3.0745,-3.0739,-3.0761,-3.0774,-3.0779,-3.0779,-3.049,-3.0734,-3.0731,-3.073,-3.0729,-3.0728,-3.0489,-3.0543,-3.0559,-3.0611,-3.0627,-3.0654,-3.0703,-3.0699,-3.0746,-3.0794,-3.0771,-3.0838,-3.0857,-3.0908,-3.0923,-3.0975,-3.0939,-3.097,-3.0978,-3.0987,-3.0998,-3.0769,-3.0982,-3.0981,-3.0981,-3.098,-3.098,0,-3.0713,-3.0721,-3.0768,-3.0807,-3.0848,-3.0803,-3.083,-3.0868,-3.0926,-3.0947,-3.0987,-3.1053,-3.1103,-3.1102,-3.1149,-3.1191,-3.1173,-3.1204,-3.1202,-3.1205,-3.1027,-3.1005,-3.1218,-3.1218,-3.1218,-3.1218,-3.1218,-3.1218,-3.0835,-3.0924,-3.0913,-3.1009,-3.1015,-3.108,-3.1099,-3.1123,-3.1139,-3.1214,-3.1256,-3.1254,-3.1266,-3.1313,-3.1357,-3.1356,-3.1376,-3.1415,-3.1407,-3.1241,-3.1218,-3.1195,-3.1174,-3.1419,-3.1419,-3.158,-3.1582,-3.1583]},{"header":{"parameterUnit":"m.s-1","parameterCategory":1,"la1":30.2991,"la2":30.254,"lo1":-89.0895,"lo2":-89.0444,"dy":0.0017,"dx":0.0017,"nx":28,"ny":28,"refTime":"2025-01-15T09:00:00:Z","depth":0,"parameterNumber":3,"parameterNumberName":"V-component_of_WINDS"},"data":[0,0,0,0,0,0,0,0,0,0,0,0,0,0,0,0,0,0,0,0,0,0,0,0,0,0,0,0,0,0,0,0,0,0,0,0,0,0,0,0,0,0,0,0,0,0,0,0,0,0,0,0,0,0,0,0,0,0,-3.2268,-3.2268,0,-3.2273,-3.2273,-3.2273,-3.2227,-3.2226,-3.2225,-3.2224,-3.2229,-3.223,-3.2232,0,0,0,0,0,0,0,0,0,0,0,0,0,-3.2217,-3.2218,-3.2268,-3.2268,-3.2268,-3.2273,-3.2273,-3.2273,-3.2228,-3.2226,-3.2225,-3.2223,-3.2229,-3.223,-3.2232,0,0,0,0,0,0,0,0,0,0,0,0,0,-3.2232,-3.2218,-3.2268,-3.2246,-3.2244,-3.2273,-3.2273,-3.2273,-3.2228,-3.2226,-3.2224,-3.2222,-3.2228,-3.223,-3.2232,-3.2282,0,0,-3.2238,-3.2239,0,0,0,0,0,0,0,0,-3.2231,-3.2234,-3.2249,-3.2247,-3.2245,-3.2247,-3.2257,-3.2276,-3.2228,-3.2234,-3.2224,-3.2221,-3.2237,-3.2238,-3.2243,-3.2283,-3.2283,-3.2238,-3.2239,-3.224,-3.2241,0,0,0,0,0,0,0,-3.223,-3.2234,-3.227,-3.2249,-3.2247,-3.2235,-3.2235,-3.226,-3.2246,-3.2233,-3.223,-3.2231,-3.2235,-3.2241,-3.2243,-3.2283,-3.2238,-3.224,-3.2241,-3.2242,-3.2362,-3.2364,0,0,0,0,0,0,-3.2232,-3.2233,-3.2269,-3.227,-3.2233,-3.2238,-3.2238,-3.2249,-3.2246,-3.2243,-3.2233,-3.2229,-3.2239,-3.2241,-3.2243,-3.23,-3.224,-3.2242,-3.2243,-3.236,-3.2362,-3.2365,0,0,0,0,0,0,-3.2231,-3.2236,-3.2269,-3.225,-3.2254,-3.224,-3.2253,-3.225,-3.2256,-3.2245,-3.2242,-3.2242,-3.2237,-3.224,-3.2272,-3.23,-3.2243,-3.2245,-3.2358,-3.2361,-3.2364,-3.2417,0,0,0,0,0,0,-3.223,-3.2236,-3.2255,-3.2251,-3.2255,-3.2299,-3.2255,-3.2251,-3.2259,-3.2254,-3.2253,-3.2251,-3.2236,-3.227,-3.2274,-3.2302,-3.2246,-3.2355,-3.2359,-3.2363,-3.2412,-3.2421,-3.2428,0,0,0,0,0,-3.2228,-3.2271,-3.2257,-3.2261,-3.2279,-3.2301,-3.2303,-3.2286,-3.2262,-3.2281,-3.2274,-3.2251,-3.2296,-3.2273,-3.2278,-3.2307,-3.2353,-3.2358,-3.2362,-3.2409,-3.2419,-3.2428,0,0,0,0,0,0,-3.2279,-3.227,-3.2254,-3.2296,-3.23,-3.2293,-3.2317,-3.2298,-3.2308,-3.2303,-3.2281,-3.2281,-3.2317,-3.2315,-3.229,-3.2354,-3.2321,-3.2326,-3.2354,-3.2364,-3.2372,-3.2371,-3.2248,0,0,0,0,0,-3.2295,-3.2313,-3.2304,-3.2342,-3.2345,-3.2331,-3.234,-3.2326,-3.2328,-3.233,-3.2325,-3.2328,-3.2343,-3.2354,-3.2367,-3.2412,-3.241,-3.2434,-3.2442,-3.2448,-3.2453,-3.2476,-3.2485,-3.2379,-3.2379,-3.2379,0,0,-3.2328,-3.2325,-3.2339,-3.2352,-3.2353,-3.2373,-3.2332,-3.2355,-3.2369,-3.2333,-3.2363,-3.236,-3.2362,-3.24,-3.2417,-3.24,-3.2482,-3.2454,-3.2459,-3.2461,-3.2481,-3.2491,-3.25,-3.2382,-3.2382,-3.2381,0,0,-3.2398,-3.2398,-3.2429,-3.2431,-3.2432,-3.2422,-3.243,-3.2426,-3.2422,-3.2452,-3.2425,-3.2441,-3.2468,-3.247,-3.2475,-3.2544,-3.2523,-3.2549,-3.2591,-3.2613,-3.2621,-3.2629,-3.2652,-3.2661,-3.2554,-3.2554,-3.2554,0,-3.2439,-3.2467,-3.2447,-3.2471,-3.2478,-3.2446,-3.2476,-3.2479,-3.2485,-3.249,-3.247,-3.2502,-3.2501,-3.2539,-3.2556,-3.2561,-3.2568,-3.2549,-3.2622,-3.2629,-3.2635,-3.2658,-3.2667,-3.2557,-3.2557,-3.2557,-3.2556,0,-3.2517,-3.2537,-3.2561,-3.2567,-3.2576,-3.2604,-3.2587,-3.2599,-3.2584,-3.2576,-3.2605,-3.2603,-3.2615,-3.2623,-3.2609,-3.2659,-3.2648,-3.2626,-3.2591,-3.2649,-3.2669,-3.2678,-3.2562,-3.2561,-3.256,-3.2559,0,0,-3.262,-3.2613,-3.2623,-3.2624,-3.2623,-3.2638,-3.2663,-3.2674,-3.2684,-3.2689,-3.2709,-3.2731,-3.271,-3.2715,-3.2701,-3.272,-3.2774,-3.2695,-3.2695,-3.2709,-3.2827,-3.2843,-3.2854,-3.276,-3.2761,-3.2763,-3.2827,0,-3.2687,-3.273,-3.2712,-3.2756,-3.2773,-3.2742,-3.2764,-3.2765,-3.2758,-3.2771,-3.2763,-3.2779,-3.2751,-3.2754,-3.2771,-3.2764,-3.2797,-3.2759,-3.2778,-3.2778,-3.2777,-3.2864,-3.2882,-3.2942,-3.2835,-3.2836,-3.2837,0,-3.2772,-3.2779,-3.2825,-3.2819,-3.2826,-3.2846,-3.2853,-3.2867,-3.2867,-3.286,-3.2866,-3.2847,-3.287,-3.2836,-3.2868,-3.2842,-3.2849,-3.2846,-3.2848,-3.2848,-3.2811,-3.2867,-3.2961,-3.297,-3.285,-3.2849,-3.2848,0,-3.2841,-3.2862,-3.2892,-3.2894,-3.2889,-3.2903,-3.2901,-3.29,-3.2907,-3.2914,-3.2918,-3.2928,-3.2933,-3.2941,-3.2925,-3.2902,-3.2958,-3.2923,-3.2953,-3.2953,-3.2966,-3.2965,-3.3062,-3.2971,-3.2971,-3.2971,-3.2971,0,-3.2918,-3.2947,-3.2923,-3.2941,-3.2972,-3.295,-3.2982,-3.2976,-3.2975,-3.2991,-3.2966,-3.2981,-3.2959,-3.2973,-3.296,-3.2988,-3.2991,-3.2985,-3.2982,-3.2987,-3.2988,-3.2991,-3.2986,-3.2973,-3.2973,-3.2972,-3.2972,0,-3.3,-3.2985,-3.3015,-3.3007,-3.3005,-3.3028,-3.3021,-3.3037,-3.3028,-3.3048,-3.3052,-3.3037,-3.3052,-3.3036,-3.305,-3.3041,-3.3078,-3.3068,-3.3078,-3.3075,-3.3105,-3.3102,-3.3206,-3.3219,-3.3121,-3.3122,-3.3123,0,-3.305,-3.3071,-3.3064,-3.3073,-3.3073,-3.3087,-3.3094,-3.3074,-3.3082,-3.3083,-3.3099,-3.3111,-3.3119,-3.3144,-3.3134,-3.3144,-3.3134,-3.317,-3.3135,-3.314,-3.3133,-3.3132,-3.3133,-3.3177,-3.3178,-3.3179,-3.318,0,-3.3139,-3.313,-3.3141,-3.3149,-3.3157,-3.3163,-3.3166,-3.3175,-3.3153,-3.3164,-3.3177,-3.3184,-3.3197,-3.3209,-3.3216,-3.3214,-3.3193,-3.3191,-3.3198,-3.3204,-3.3208,-3.3205,-3.3096,-3.3188,-3.3187,-3.3187,-3.3186,-3.3186,-3.3206,-3.3223,-3.322,-3.3232,-3.3233,-3.3236,-3.325,-3.3242,-3.3253,-3.3261,-3.3249,-3.3266,-3.3265,-3.3271,-3.3272,-3.3285,-3.3269,-3.328,-3.3282,-3.3285,-3.3289,-3.3206,-3.3286,-3.3286,-3.3285,-3.3285,-3.3285,0,-3.3293,-3.329,-3.3301,-3.3306,-3.3315,-3.3294,-3.3296,-3.3306,-3.3321,-3.3321,-3.333,-3.3345,-3.3356,-3.3347,-3.3356,-3.3368,-3.3359,-3.3371,-3.337,-3.3369,-3.3303,-3.3295,-3.3378,-3.3378,-3.3378,-3.3378,-3.3378,-3.3378,-3.334,-3.3366,-3.3357,-3.3383,-3.3379,-3.3395,-3.3398,-3.3401,-3.34,-3.3419,-3.3427,-3.3421,-3.3417,-3.3426,-3.3435,-3.3432,-3.3436,-3.3452,-3.3445,-3.3383,-3.3374,-3.3365,-3.3358,-3.3453,-3.3453,-3.351,-3.3511,-3.3511]}]]